Location: Blanot
(47.1713°N, 4.2340°E)
Time: 08:40:14
(UTC+00:00)

Cosmos 2360 Rocket - Pass Details

Date: 14 July 2020
Orbit: 832 x 846 km, 71.0° (Epoch: 15 August)

Event Time Altitude Azimuth Distance (km) Brightness Sun altitude
Rises 03:16:16 0° 336° (NNW) 3,418 5.6 -6.9°
Reaches altitude 10° 03:18:52 10° 343° (NNW) 2,479 5.0 -6.6°
Maximum altitude 03:24:16 43° 55° (NE) 1,181 3.7 -5.9°
Drops below altitude 10° 03:29:38 10° 126° (SE) 2,465 4.8 -5.2°
Sets 03:32:12 0° 133° (SE) 3,395 5.4 -4.9°
